CFC3436 ENGM-EKCH

Flight info

Callsign CFC3436
Flight time 0h 59m
Altitude 29000
Route OKSAT L996 KELIN DCT TOPLA L996 ERNOV
Aircraft A332/H-SDE3GHIJ2J3J5M1RVWXY/LB2D1

Departure

Time 2026-05-05 22:46
Airport Oslo-Gardermoen International Airport (ENGM)

Arrival

Time 2026-05-05 23:45
Airport Copenhagen Kastrup Airport (EKCH)
Time Latitude Longitude Altitude Speed Heading
2026-05-05 22:32 60.20791 11.09658 679 ft 0 kts 17°
2026-05-05 22:38 60.20803 11.09666 676 ft 4 kts 17°
2026-05-05 22:38 60.20824 11.09662 679 ft 2 kts 327°
2026-05-05 22:38 60.20826 11.09649 679 ft 0 kts 294°
2026-05-05 22:39 60.20826 11.09646 679 ft 0 kts 284°
2026-05-05 22:39 60.20823 11.09631 679 ft 2 kts 249°
2026-05-05 22:39 60.20804 11.09593 679 ft 7 kts 222°
2026-05-05 22:39 60.20767 11.09509 677 ft 9 kts 252°
2026-05-05 22:40 60.20778 11.09377 679 ft 10 kts 281°
2026-05-05 22:40 60.20750 11.09244 677 ft 12 kts 214°
2026-05-05 22:40 60.20655 11.09180 677 ft 17 kts 196°
2026-05-05 22:40 60.20536 11.09115 680 ft 19 kts 193°
2026-05-05 22:41 60.20395 11.09035 677 ft 22 kts 197°
2026-05-05 22:41 60.20243 11.08943 681 ft 24 kts 196°
2026-05-05 22:41 60.20084 11.08851 681 ft 24 kts 195°
2026-05-05 22:41 60.19924 11.08763 676 ft 24 kts 196°
2026-05-05 22:42 60.19765 11.08672 679 ft 24 kts 196°
2026-05-05 22:42 60.19606 11.08580 678 ft 24 kts 196°
2026-05-05 22:42 60.19447 11.08488 680 ft 24 kts 196°
2026-05-05 22:42 60.19287 11.08395 682 ft 24 kts 196°
2026-05-05 22:43 60.19128 11.08303 679 ft 22 kts 196°
2026-05-05 22:43 60.19000 11.08229 679 ft 19 kts 196°
2026-05-05 22:43 60.18875 11.08148 680 ft 19 kts 196°
2026-05-05 22:43 60.18747 11.08073 679 ft 19 kts 196°
2026-05-05 22:44 60.18616 11.08004 682 ft 20 kts 194°
2026-05-05 22:44 60.18549 11.07829 681 ft 16 kts 274°
2026-05-05 22:44 60.18565 11.07607 679 ft 16 kts 287°
2026-05-05 22:44 60.18638 11.07463 678 ft 15 kts 358°
2026-05-05 22:45 60.18731 11.07506 680 ft 15 kts 15°
2026-05-05 22:45 60.18989 11.07647 683 ft 74 kts 15°
2026-05-05 22:45 60.19729 11.08083 681 ft 147 kts 16°
2026-05-05 22:45 60.20862 11.08717 1223 ft 174 kts 15°
2026-05-05 22:46 60.22038 11.09274 2327 ft 183 kts 14°
2026-05-05 22:46 60.23330 11.10009 2799 ft 205 kts 15°
2026-05-05 22:46 60.24771 11.10872 3191 ft 225 kts 13°
2026-05-05 22:46 60.26343 11.11288 3735 ft 235 kts
2026-05-05 22:47 60.28026 11.11739 4088 ft 254 kts 15°
2026-05-05 22:47 60.29589 11.13470 4627 ft 263 kts 42°
2026-05-05 22:47 60.30623 11.16499 5343 ft 266 kts 66°
2026-05-05 22:47 60.30712 11.16935 5432 ft 266 kts 67°
2026-05-05 22:49 60.30827 11.17504 5557 ft 266 kts 66°
2026-05-05 22:49 60.31582 11.20910 6287 ft 267 kts 64°
2026-05-05 22:50 60.32393 11.24292 7010 ft 270 kts 63°
2026-05-05 22:50 60.33235 11.27696 7705 ft 273 kts 62°
2026-05-05 22:50 60.34096 11.31138 8384 ft 277 kts 62°
2026-05-05 22:50 60.34975 11.34626 9074 ft 281 kts 62°
2026-05-05 22:51 60.35867 11.38159 9751 ft 285 kts 62°
2026-05-05 22:51 60.36778 11.41772 10246 ft 296 kts 62°
2026-05-05 22:51 60.37620 11.45709 10498 ft 316 kts 72°
2026-05-05 22:51 60.38004 11.50195 10729 ft 335 kts 89°
2026-05-05 22:52 60.37681 11.54928 10974 ft 351 kts 108°
2026-05-05 22:52 60.36584 11.59355 11442 ft 357 kts 128°
2026-05-05 22:52 60.34827 11.62874 11996 ft 358 kts 147°
2026-05-05 22:52 60.32629 11.65047 12598 ft 355 kts 167°
2026-05-05 22:53 60.30205 11.65931 13179 ft 355 kts 177°
2026-05-05 22:53 60.27740 11.66391 13751 ft 358 kts 179°
2026-05-05 22:53 60.25251 11.66808 14298 ft 361 kts 180°
2026-05-05 22:53 60.22744 11.67241 14838 ft 365 kts 180°
2026-05-05 22:54 60.20211 11.67695 15399 ft 368 kts 180°
2026-05-05 22:54 60.17652 11.68164 15921 ft 372 kts 180°
2026-05-05 22:54 60.15071 11.68644 16464 ft 374 kts 181°
2026-05-05 22:54 60.12473 11.69131 16958 ft 377 kts 181°
2026-05-05 22:55 60.09854 11.69621 17471 ft 381 kts 182°
2026-05-05 22:55 60.07213 11.70115 17967 ft 384 kts 182°
2026-05-05 22:55 60.04553 11.70625 18403 ft 388 kts 183°
2026-05-05 22:55 60.01867 11.71120 18925 ft 390 kts 183°
2026-05-05 22:56 59.99163 11.71623 19500 ft 392 kts 183°
2026-05-05 22:56 59.96452 11.72136 19999 ft 392 kts 184°
2026-05-05 22:56 59.93731 11.72643 20399 ft 396 kts 184°
2026-05-05 22:56 59.90983 11.73154 20819 ft 399 kts 184°
2026-05-05 22:57 59.88222 11.73670 21269 ft 400 kts 185°
2026-05-05 22:57 59.85441 11.74186 21663 ft 403 kts 185°
2026-05-05 22:57 59.82645 11.74704 22099 ft 405 kts 185°
2026-05-05 22:57 59.79835 11.75225 22522 ft 407 kts 185°
2026-05-05 22:58 59.77012 11.75746 22907 ft 410 kts 186°
2026-05-05 22:58 59.74168 11.76270 23287 ft 413 kts 186°
2026-05-05 22:58 59.71310 11.76797 23723 ft 414 kts 186°
2026-05-05 22:58 59.68440 11.77325 24086 ft 416 kts 186°
2026-05-05 22:59 59.65551 11.77901 24453 ft 422 kts 184°
2026-05-05 22:59 59.62635 11.79021 24813 ft 434 kts 177°
2026-05-05 22:59 59.59710 11.80605 25257 ft 438 kts 175°
2026-05-05 22:59 59.56785 11.82279 25652 ft 440 kts 175°
2026-05-05 23:00 59.50892 11.85639 26368 ft 444 kts 175°
2026-05-05 23:00 59.47925 11.87317 26726 ft 445 kts 175°
2026-05-05 23:00 59.44946 11.88993 27055 ft 448 kts 174°
2026-05-05 23:01 59.41947 11.90677 27396 ft 450 kts 174°
2026-05-05 23:01 59.38942 11.92361 27763 ft 451 kts 174°
2026-05-05 23:01 59.35921 11.94035 28083 ft 452 kts 176°
2026-05-05 23:01 59.32881 11.95215 28388 ft 442 kts 184°
2026-05-05 23:02 59.29850 11.95455 28740 ft 433 kts 191°
2026-05-05 23:02 59.26855 11.95309 28937 ft 431 kts 192°
2026-05-05 23:02 59.20941 11.94623 28980 ft 424 kts 194°
2026-05-05 23:03 59.15073 11.93850 28963 ft 424 kts 193°
2026-05-05 23:03 59.09195 11.93154 28968 ft 424 kts 193°
2026-05-05 23:04 59.03308 11.92511 28974 ft 425 kts 193°
2026-05-05 23:04 58.97424 11.91883 28954 ft 424 kts 193°
2026-05-05 23:05 58.91541 11.91252 28953 ft 425 kts 192°
2026-05-05 23:05 58.85650 11.90620 28965 ft 425 kts 192°
2026-05-05 23:06 58.79712 11.90646 28954 ft 434 kts 184°
2026-05-05 23:06 58.73695 11.92032 28954 ft 438 kts 181°
2026-05-05 23:07 58.67669 11.93708 28968 ft 438 kts 181°
2026-05-05 23:07 58.61660 11.95397 28970 ft 437 kts 181°
2026-05-05 23:08 58.55646 11.97043 28970 ft 437 kts 181°
2026-05-05 23:08 58.49634 11.98665 28952 ft 437 kts 181°
2026-05-05 23:09 58.43634 12.00274 28955 ft 436 kts 181°
2026-05-05 23:09 58.37627 12.01881 28967 ft 437 kts 181°
2026-05-05 23:10 58.31624 12.03482 28969 ft 436 kts 181°
2026-05-05 23:10 58.25638 12.05072 28952 ft 435 kts 181°
2026-05-05 23:11 58.19649 12.06659 28970 ft 435 kts 181°
2026-05-05 23:11 58.13663 12.08237 28966 ft 436 kts 181°
2026-05-05 23:12 58.07666 12.09813 28968 ft 436 kts 181°
2026-05-05 23:12 58.01682 12.11383 28953 ft 436 kts 181°
2026-05-05 23:13 57.95683 12.12951 28956 ft 436 kts 181°
2026-05-05 23:13 57.89697 12.14510 28952 ft 435 kts 181°
2026-05-05 23:14 57.83708 12.16065 28967 ft 435 kts 181°
2026-05-05 23:14 57.77716 12.17616 28968 ft 435 kts 181°
2026-05-05 23:15 57.71720 12.19159 28953 ft 436 kts 181°
2026-05-05 23:15 57.65725 12.20697 28969 ft 436 kts 181°
2026-05-05 23:16 57.59735 12.22233 28967 ft 436 kts 180°
2026-05-05 23:16 57.53736 12.23764 28962 ft 436 kts 180°
2026-05-05 23:17 57.47736 12.25289 28953 ft 435 kts 180°
2026-05-05 23:17 57.41746 12.26811 28932 ft 435 kts 180°
2026-05-05 23:18 57.38766 12.27568 28444 ft 433 kts 180°
2026-05-05 23:18 57.35793 12.28320 27920 ft 430 kts 180°
2026-05-05 23:18 57.32848 12.29064 27390 ft 428 kts 180°
2026-05-05 23:18 57.29916 12.29803 26886 ft 424 kts 180°
2026-05-05 23:19 57.27007 12.30537 26353 ft 422 kts 180°
2026-05-05 23:19 57.24113 12.31265 25832 ft 419 kts 180°
2026-05-05 23:19 57.21239 12.31987 25307 ft 416 kts 180°
2026-05-05 23:19 57.18385 12.32700 24806 ft 413 kts 180°
2026-05-05 23:20 57.15553 12.33408 24286 ft 410 kts 180°
2026-05-05 23:20 57.12735 12.34111 23743 ft 409 kts 180°
2026-05-05 23:20 57.09933 12.34808 23222 ft 406 kts 180°
2026-05-05 23:20 57.07150 12.35497 22710 ft 403 kts 180°
2026-05-05 23:21 57.04391 12.36181 22202 ft 400 kts 180°
2026-05-05 23:21 57.01648 12.36860 21686 ft 397 kts 180°
2026-05-05 23:21 56.98928 12.37533 21151 ft 395 kts 180°
2026-05-05 23:21 56.96215 12.38203 20644 ft 392 kts 180°
2026-05-05 23:22 56.93534 12.38865 20135 ft 389 kts 180°
2026-05-05 23:22 56.90867 12.39523 19627 ft 386 kts 180°
2026-05-05 23:22 56.88221 12.40175 19114 ft 383 kts 180°
2026-05-05 23:22 56.85590 12.40821 18573 ft 381 kts 179°
2026-05-05 23:23 56.82976 12.41462 18069 ft 378 kts 179°
2026-05-05 23:23 56.80387 12.42097 17570 ft 375 kts 179°
2026-05-05 23:23 56.77818 12.42726 17062 ft 372 kts 179°
2026-05-05 23:23 56.75263 12.43350 16511 ft 370 kts 179°
2026-05-05 23:24 56.72720 12.43970 15973 ft 368 kts 179°
2026-05-05 23:24 56.70193 12.44585 15446 ft 366 kts 178°
2026-05-05 23:24 56.67688 12.45194 14918 ft 364 kts 178°
2026-05-05 23:24 56.65193 12.45801 14389 ft 361 kts 178°
2026-05-05 23:25 56.62714 12.46403 13851 ft 359 kts 178°
2026-05-05 23:25 56.60246 12.47002 13329 ft 357 kts 178°
2026-05-05 23:25 56.57798 12.47595 12810 ft 354 kts 178°
2026-05-05 23:25 56.55369 12.48182 12283 ft 352 kts 177°
2026-05-05 23:26 56.52950 12.48766 11736 ft 350 kts 177°
2026-05-05 23:26 56.50545 12.49344 11223 ft 348 kts 176°
2026-05-05 23:26 56.48161 12.49918 10706 ft 345 kts 175°
2026-05-05 23:26 56.45791 12.50488 10174 ft 343 kts 175°
2026-05-05 23:27 56.43436 12.51054 9721 ft 339 kts 174°
2026-05-05 23:27 56.41145 12.51606 9535 ft 327 kts 174°
2026-05-05 23:27 56.38940 12.52136 9388 ft 314 kts 173°
2026-05-05 23:27 56.36824 12.52643 9306 ft 300 kts 173°
2026-05-05 23:28 56.34812 12.53126 9311 ft 286 kts 173°
2026-05-05 23:28 56.32865 12.53590 9321 ft 282 kts 173°
2026-05-05 23:28 56.30926 12.54051 9321 ft 282 kts 173°
2026-05-05 23:28 56.28985 12.54512 9324 ft 282 kts 173°
2026-05-05 23:29 56.27041 12.54974 9323 ft 282 kts 173°
2026-05-05 23:29 56.25097 12.55437 9324 ft 282 kts 173°
2026-05-05 23:29 56.23153 12.55899 9323 ft 282 kts 173°
2026-05-05 23:29 56.21213 12.56360 9324 ft 282 kts 173°
2026-05-05 23:30 56.19269 12.56821 9320 ft 282 kts 173°
2026-05-05 23:30 56.17321 12.57256 9322 ft 282 kts 176°
2026-05-05 23:30 56.15370 12.57411 9296 ft 282 kts 180°
2026-05-05 23:30 56.13413 12.57446 9179 ft 281 kts 181°
2026-05-05 23:31 56.11463 12.57459 9058 ft 281 kts 181°
2026-05-05 23:31 56.09508 12.57469 8930 ft 281 kts 180°
2026-05-05 23:31 56.07562 12.57483 8805 ft 281 kts 180°
2026-05-05 23:31 56.05615 12.57498 8680 ft 280 kts 180°
2026-05-05 23:32 56.03670 12.57515 8545 ft 280 kts 180°
2026-05-05 23:32 56.01729 12.57533 8431 ft 279 kts 180°
2026-05-05 23:32 55.99790 12.57551 8304 ft 279 kts 180°
2026-05-05 23:32 55.97855 12.57569 8176 ft 279 kts 180°
2026-05-05 23:33 55.95922 12.57588 8050 ft 278 kts 180°
2026-05-05 23:33 55.93997 12.57605 7932 ft 277 kts 180°
2026-05-05 23:33 55.92073 12.57623 7808 ft 277 kts 180°
2026-05-05 23:33 55.90154 12.57643 7681 ft 276 kts 180°
2026-05-05 23:34 55.88241 12.57647 7559 ft 276 kts 182°
2026-05-05 23:34 55.86356 12.57127 7437 ft 275 kts 196°
2026-05-05 23:34 55.84549 12.56063 7310 ft 275 kts 200°
2026-05-05 23:34 55.82756 12.54890 7186 ft 275 kts 201°
2026-05-05 23:35 55.80967 12.53710 7057 ft 275 kts 200°
2026-05-05 23:35 55.79179 12.52540 6940 ft 274 kts 200°
2026-05-05 23:35 55.77395 12.51378 6812 ft 273 kts 200°
2026-05-05 23:35 55.75613 12.50222 6688 ft 272 kts 200°
2026-05-05 23:36 55.73836 12.49072 6563 ft 272 kts 200°
2026-05-05 23:36 55.72064 12.47929 6433 ft 272 kts 200°
2026-05-05 23:36 55.70291 12.46787 6313 ft 271 kts 200°
2026-05-05 23:36 55.68525 12.45649 6191 ft 271 kts 200°
2026-05-05 23:37 55.66754 12.44509 6058 ft 271 kts 200°
2026-05-05 23:37 55.64991 12.43376 5933 ft 270 kts 200°
2026-05-05 23:37 55.63225 12.42245 5824 ft 270 kts 200°
2026-05-05 23:37 55.61459 12.41116 5677 ft 270 kts 200°
2026-05-05 23:38 55.59785 12.39660 5563 ft 269 kts 215°
2026-05-05 23:38 55.58318 12.37627 5437 ft 269 kts 221°
2026-05-05 23:38 55.58239 12.37508 5434 ft 269 kts 221°
2026-05-05 23:39 55.57148 12.35837 5341 ft 269 kts 222°
2026-05-05 23:39 55.55746 12.33660 5211 ft 269 kts 222°
2026-05-05 23:39 55.54341 12.31483 5080 ft 268 kts 222°
2026-05-05 23:39 55.52944 12.29389 4932 ft 260 kts 217°
2026-05-05 23:40 55.51330 12.28156 4783 ft 252 kts 186°
2026-05-05 23:40 55.49663 12.28681 4619 ft 242 kts 149°
2026-05-05 23:40 55.48505 12.30679 4477 ft 231 kts 116°
2026-05-05 23:40 55.47930 12.33252 4327 ft 224 kts 104°
2026-05-05 23:41 55.47505 12.35888 4185 ft 223 kts 103°
2026-05-05 23:41 55.47157 12.38547 4023 ft 222 kts 93°
2026-05-05 23:41 55.47316 12.41193 3771 ft 216 kts 66°
2026-05-05 23:41 55.48127 12.43352 3404 ft 213 kts 44°
2026-05-05 23:42 55.49238 12.45085 2942 ft 216 kts 37°
2026-05-05 23:42 55.50409 12.46779 2479 ft 221 kts 39°
2026-05-05 23:42 55.51572 12.48568 2042 ft 223 kts 40°
2026-05-05 23:42 55.52731 12.50364 1705 ft 221 kts 40°
2026-05-05 23:43 55.53872 12.52119 1417 ft 215 kts 40°
2026-05-05 23:43 55.54994 12.53842 1134 ft 213 kts 40°
2026-05-05 23:43 55.56090 12.55526 899 ft 203 kts 39°
2026-05-05 23:43 55.57132 12.57026 696 ft 185 kts 39°
2026-05-05 23:44 55.58073 12.58469 428 ft 174 kts 42°
2026-05-05 23:44 55.58924 12.59893 151 ft 162 kts 36°
2026-05-05 23:44 55.59695 12.61122 32 ft 139 kts 39°
2026-05-05 23:44 55.60294 12.62017 25 ft 87 kts 40°
2026-05-05 23:45 55.60711 12.62652 31 ft 72 kts 41°
2026-05-05 23:45 55.61063 12.63184 30 ft 61 kts 40°
2026-05-05 23:45 55.61353 12.63634 27 ft 46 kts 41°
2026-05-05 23:45 55.61554 12.63943 24 ft 32 kts 41°
2026-05-05 23:46 55.61674 12.64073 28 ft 18 kts
2026-05-05 23:46 55.61800 12.64067 28 ft 18 kts 356°
2026-05-05 23:46 55.61915 12.64109 29 ft 17 kts 21°
2026-05-05 23:46 55.62031 12.64194 26 ft 19 kts 24°
2026-05-05 23:47 55.62146 12.64292 22 ft 16 kts 26°
2026-05-05 23:47 55.62252 12.64379 22 ft 16 kts 21°
2026-05-05 23:47 55.62354 12.64429 23 ft 16 kts 11°
2026-05-05 23:47 55.62450 12.64374 22 ft 15 kts 310°
2026-05-05 23:48 55.62511 12.64228 29 ft 14 kts 304°
2026-05-05 23:48 55.62567 12.64085 31 ft 14 kts 304°
2026-05-05 23:48 55.62621 12.63945 29 ft 13 kts 304°
2026-05-05 23:48 55.62692 12.63878 28 ft 12 kts 15°
2026-05-05 23:49 55.62745 12.63913 27 ft 1 kts 348°
2026-05-05 23:49 55.62751 12.63900 27 ft 3 kts 315°
2026-05-05 23:49 55.62769 12.63884 27 ft 1 kts 353°
2026-05-05 23:49 55.62783 12.63879 27 ft 1 kts 339°
2026-05-05 23:50 55.62785 12.63875 27 ft 0 kts 329°
2026-05-05 23:50 55.62787 12.63872 27 ft 1 kts 321°
2026-05-05 23:50 55.62787 12.63865 27 ft 0 kts 298°